EW0195 Weather Reports


Display with metric or nautical units.
time (UTC)temp
F
wind
direction
speed
MPH
gust
MPH
rain 1hr
in
rain 24hr
in
rain mn
in
humidity
%
barometer
mb
20260904104500 70 343 0.0 0.0 0.00 0.00 0.00 90 1012.7
20260904103000 70 334 0.0 0.0 0.00 0.00 0.00 90 1012.6
20260904101500 71 301 0.0 0.0 0.00 0.00 0.00 90 1012.5
20260904100004 71 304 0.0 1.0 0.00 0.00 0.00 90 1012.5
20260904094501 71 289 0.0 0.0 0.00 0.00 0.00 90 1012.4
20260904093000 72 288 0.0 0.0 0.00 0.00 0.00 90 1012.6
20260904083000 73 300 1.0 3.0 0.00 0.00 0.00 88 1013.0
20260904081459 73 300 1.0 4.0 0.00 0.00 0.00 88 1013.0
20260904080004 73 292 1.0 4.0 0.00 0.00 0.00 88 1013.1
20260904074500 73 297 0.0 4.0 0.00 0.00 0.00 88 1013.3
20260904073001 73 292 0.0 3.0 0.00 0.00 0.00 89 1013.1
20260904070005 74 333 2.0 4.0 0.00 0.00 0.00 93 1012.5
20260904064501 74 289 0.0 1.0 0.00 0.00 0.00 94 1012.1
20260904061500 74 281 0.0 2.0 0.00 0.00 0.00 94 1011.7
20260904060005 74 280 0.0 1.0 0.00 0.00 0.00 94 1011.9
20260904054500 74 280 0.0 0.0 0.00 0.00 0.00 93 1012.2
20260904053000 75 280 0.0 0.0 0.00 0.00 0.00 93 1012.6
20260904051501 75 280 1.0 2.0 0.00 0.00 0.00 93 1012.4
20260904050004 75 302 0.0 2.0 0.00 0.00 0.00 94 1012.3
20260904044501 75 302 0.0 1.0 0.00 0.00 0.00 94 1012.3
20260904043000 75 302 0.0 1.0 0.00 0.00 0.00 93 1012.2
20260904041501 76 302 0.0 1.0 0.00 0.00 0.00 93 1012.7
20260904040004 76 302 0.0 0.0 0.00 0.00 0.00 92 1013.0
20260904034500 76 302 0.0 2.0 0.00 0.00 0.00 90 1013.5
20260904033000 77 72 2.0 7.0 0.00 0.00 0.00 88 1013.9
20260904031500 77 295 0.0 0.0 0.00 0.00 0.00 86 1013.8
20260904030003 77 296 0.0 0.0 0.00 0.00 0.00 87 1013.8
20260904024501 77 296 0.0 2.0 0.00 0.00 0.00 87 1013.7
20260904022959 77 295 0.0 3.0 0.00 0.00 0.00 87 1013.7
20260904021500 77 295 1.0 4.0 0.00 0.00 0.00 87 1013.8
20260904020003 77 287 0.0 0.0 0.00 0.00 0.00 88 1013.5
20260904014500 77 287 0.0 0.0 0.00 0.00 0.00 89 1013.5
20260904013000 76 287 0.0 1.0 0.00 0.00 0.00 89 1013.7
20260904010005 78 287 0.0 1.0 0.00 0.00 0.00 87 1014.2
20260904004502 78 287 0.0 3.0 0.00 0.00 0.00 86 1014.2
20260904003000 78 288 0.0 0.0 0.00 0.00 0.00 86 1014.2
20260904001500 78 288 1.0 2.0 0.00 0.00 0.00 86 1014.0
20260904000003 79 295 0.0 3.0 0.00 0.00 0.00 86 1013.9
20260903233000 80 297 0.0 1.0 0.00 0.00 0.00 81 1013.7
20260903231500 81 297 0.0 1.0 0.00 0.00 0.00 79 1013.9
20260903230004 81 293 0.0 2.0 0.00 0.00 0.00 78 1013.6
20260903224500 82 290 0.0 3.0 0.00 0.00 0.00 79 1013.4
20260903220003 83 323 2.0 6.0 0.00 0.00 0.00 84 1013.3
20260903214500 83 255 4.0 7.0 0.00 0.00 0.00 83 1013.3
20260903213001 84 297 3.0 10.0 0.00 0.00 0.00 82 1013.0
20260903211500 86 242 3.0 9.0 0.00 0.00 0.00 77 1012.9
20260903204500 87 295 2.0 6.0 0.00 0.00 0.00 73 1013.2
20260903203001 87 284 2.0 9.0 0.00 0.00 0.00 70 1013.3
20260903201500 86 310 2.0 8.0 0.00 0.00 0.00 69 1013.6
20260903194500 86 308 3.0 8.0 0.00 0.00 0.00 72 1013.8
20260903191500 85 340 3.0 8.0 0.00 0.00 0.00 76 1014.1
20260903190003 85 285 2.0 7.0 0.00 0.00 0.00 77 1014.2
20260903184500 83 305 5.0 9.0 0.00 0.00 0.00 79 1014.4
20260903183000 83 295 5.0 12.0 0.00 0.00 0.00 78 1014.7
20260903181500 83 301 3.0 7.0 0.00 0.00 0.00 80 1014.7
20260903174500 83 344 1.0 4.0 0.00 0.00 0.00 79 1014.7
20260903173000 81 286 2.0 8.0 0.00 0.00 0.00 81 1015.0
20260903171500 80 312 3.0 8.0 0.00 0.00 0.00 83 1015.2
20260903170004 80 300 1.0 3.0 0.00 0.00 0.00 87 1015.7
20260903164501 78 354 3.0 8.0 0.00 0.00 0.00 88 1015.6
20260903163000 78 330 2.0 9.0 0.00 0.00 0.00 88 1016.0
20260903161500 78 302 5.0 12.0 0.00 0.00 0.00 87 1016.4
20260903160004 78 309 3.0 8.0 0.00 0.00 0.00 88 1016.4
20260903154500 77 327 2.0 8.0 0.00 0.00 0.00 92 1016.8
20260903153000 76 285 2.0 6.0 0.00 0.00 0.00 91 1017.2
20260903151500 76 311 3.0 9.0 0.00 0.00 0.00 91 1016.9
20260903150005 76 252 2.0 7.0 0.00 0.00 0.00 92 1017.0
20260903144500 76 319 3.0 6.0 0.00 0.00 0.00 92 1016.7
20260903143000 75 290 4.0 8.0 0.00 0.00 0.00 92 1016.4
20260903140004 74 302 3.0 9.0 0.00 0.00 0.00 95 1016.0
20260903134500 73 300 6.0 12.0 0.00 0.00 0.00 95 1016.1
20260903133000 73 290 6.0 13.0 0.00 0.00 0.00 96 1016.1
20260903131500 73 292 6.0 11.0 0.00 0.00 0.00 97 1016.1
20260903130002 72 276 4.0 8.0 0.00 0.00 0.00 98 1015.8
20260903123001 71 278 3.0 6.0 0.00 0.00 0.00 98 1016.1
20260903121500 70 311 3.0 6.0 0.00 0.00 0.00 98 1016.1
20260903120003 70 278 4.0 9.0 0.00 0.00 0.00 98 1016.2
20260903114500 70 304 4.0 8.0 0.00 0.00 0.00 98 1016.9
20260903113000 70 289 3.0 9.0 0.00 0.00 0.00 98 1017.0
20260903111500 70 269 3.0 7.0 0.00 0.00 0.00 98 1017.7